Probability
55 52 52 55 55 45 35 39 39 39 35 35 32 35 32 26 32 23 13 10 10 10 6 10 10 6 6 6 3 0 0 0 0 0 0 0 0 0 0 0 0 0 0
52 45 42 42 45 45 45 42 35 32 29 29 32 29 35 29 29 29 23 23 13 13 10 10 10 6 6 6 6 3 0 0 0 0 0 0 0 0 0 0 0 0 0
48 42 42 42 45 42 45 45 39 42 32 32 29 32 26 32 23 26 26 26 19 19 10 13 10 10 6 6 3 3 3 0 0 0 0 0 0 0 0 0 0 0 0
45 42 42 42 42 42 42 42 42 39 35 29 32 26 23 29 23 26 23 23 13 16 16 13 10 10 10 10 3 3 3 0 0 0 0 0 0 0 0 0 0 0 0
45 45 42 39 39 35 35 42 42 42 42 32 26 26 32 32 32 23 19 19 16 19 16 10 13 10 10 6 6 6 3 3 0 0 0 0 0 0 0 0 0 0 0
45 42 42 39 35 35 35 35 39 39 35 29 29 29 29 29 26 10 16 16 16 16 16 16 10 6 3 3 0 0 0 3 0 0 0 0 0 0 0 0 0 0 0
39 42 39 32 29 29 32 32 32 35 29 26 26 26 26 26 19 0 0 10 13 10 10 13 13 10 3 3 3 0 0 0 0 0 0 0 0 0 0 0 0 0 0
39 35 35 35 32 29 29 29 29 26 29 29 26 26 26 26 10 0 0 0 6 10 10 6 3 3 0 0 3 3 3 0 0 0 0 0 0 0 0 0 0 0 0
35 32 35 29 26 26 23 23 23 23 23 19 23 23 19 19 13 0 0 3 3 3 3 6 0 0 0 0 0 3 3 3 0 0 0 0 0 0 0 0 0 0 0
26 26 32 32 29 23 23 23 23 23 23 19 16 16 16 16 13 3 0 0 0 3 3 6 0 0 0 0 0 0 0 0 3 3 0 0 0 0 0 0 0 0 0
23 23 26 23 23 23 19 19 19 19 19 16 16 16 16 13 10 3 0 0 0 0 0 3 0 0 0 0 0 0 0 0 0 0 0 0 0 0 0 0 0 0 0
16 16 16 19 26 23 19 16 19 16 13 13 10 10 10 3 3 0 0 0 0 3 3 3 0 0 0 0 0 0 0 0 0 0 0 0 0 0 0 0 0 0 0
16 16 13 10 16 13 16 16 16 10 13 13 10 10 6 3 3 0 0 0 0 0 3 3 0 0 0 0 0 0 0 0 0 0 0 0 0 0 0 0 0 0 0
16 13 10 10 6 6 6 10 10 13 6 6 6 6 6 3 3 3 0 0 0 0 0 0 0 0 0 0 0 0 0 0 0 0 0 0 0 0 0 0 0 0 0
10 10 6 6 6 6 6 6 6 6 10 10 6 6 6 3 3 3 0 0 0 0 0 0 0 0 0 0 0 0 0 0 0 0 0 0 0 0 0 0 0 0 0
6 10 6 6 6 6 6 3 3 3 3 0 0 3 0 0 0 0 0 0 0 0 0 0 0 0 0 0 0 0 0 0 0 0 0 0 0 0 0 0 0 0 0
6 6 6 3 6 3 3 3 3 0 0 0 0 0 0 0 0 0 0 0 0 0 0 0 0 0 0 0 0 0 0 0 0 0 0 0 0 0 0 0 0 0 0
6 3 3 3 3 3 3 3 3 3 3 0 0 0 0 0 0 0 0 0 0 0 0 0 0 0 0 0 0 0 0 0 0 0 0 0 0 0 0 0 0 0 0
6 6 3 0 0 3 3 3 3 3 3 0 0 0 0 0 0 0 0 0 0 0 0 0 0 0 0 0 0 0 0 0 0 0 0 0 0 0 0 0 0 0 0
0 0 0 0 0 0 0 3 3 3 3 3 0 0 0 0 0 0 0 0 0 0 0 0 0 0 0 0 0 0 0 0 0 0 0 0 0 0 0 0 0 0 0
0 0 0 0 0 0 0 0 0 0 3 3 0 0 0 0 0 0 0 0 0 0 0 0 0 0 0 0 0 0 0 0 0 0 0 0 0 0 0 0 0 0 0
0 0 0 0 0 0 0 0 0 0 0 0 0 0 0 0 0 0 0 0 0 0 0 0 0 0 0 0 0 0 0 0 0 0 0 0 0 0 0 0 0 0 0
0 0 0 0 0 0 0 0 0 0 0 0 0 0 0 0 0 0 0 0 0 0 0 0 0 0 0 0 0 0 0 0 0 0 0 0 0 0 0 0 0 0 0
0 0 0 0 0 0 0 0 0 0 0 0 0 0 0 0 0 0 0 0 0 0 0 0 0 0 0 0 0 0 0 0 0 0 0 0 0 0 0 0 0 0 0
0 0 0 0 0 0 0 0 0 0 0 0 0 0 0 0 0 0 0 0 0 0 0 0 0 0 0 0 0 0 0 0 0 0 0 0 0 0 0 0 0 0 0
0 0 0 0 0 0 0 0 0 0 0 0 0 0 0 0 0 0 0 0 0 0 0 0 0 0 0 0 0 0 0 0 0 0 0 0 0 0 0 0 0 0 0
Height
5860 5860 5861 5861 5861 5862 5862 5862 5863 5863 5864 5865 5866 5866 5867 5867 5868 5868 5868 5869 5869 5869 5869 5869 5869 5870 5870 5870 5870 5870 5870 5869 5869 5869 5868 5868 5867 5867 5866 5865 5863 5862 5860
5856 5857 5857 5857 5858 5858 5859 5859 5860 5860 5861 5862 5862 5862 5863 5863 5863 5864 5864 5864 5864 5864 5864 5864 5865 5865 5865 5865 5865 5864 5864 5864 5864 5864 5864 5863 5862 5862 5861 5860 5859 5857 5856
5853 5853 5853 5854 5854 5855 5855 5856 5856 5857 5857 5857 5858 5858 5859 5859 5859 5859 5859 5859 5859 5859 5860 5859 5859 5860 5860 5860 5860 5859 5859 5859 5858 5858 5858 5857 5857 5856 5855 5854 5853 5852 5851
5849 5849 5850 5850 5851 5851 5852 5852 5852 5853 5853 5854 5854 5854 5854 5854 5854 5854 5854 5854 5854 5854 5854 5854 5854 5854 5854 5854 5854 5853 5853 5853 5852 5852 5851 5851 5851 5850 5849 5848 5847 5846 5845
5846 5846 5847 5847 5847 5847 5848 5848 5849 5849 5849 5849 5849 5849 5849 5849 5849 5849 5850 5849 5849 5849 5849 5849 5848 5848 5848 5848 5848 5848 5847 5847 5846 5846 5845 5845 5844 5844 5843 5842 5841 5839 5838
5843 5843 5843 5843 5844 5844 5844 5845 5845 5845 5845 5845 5845 5845 5845 5844 5844 5844 5844 5844 5844 5844 5844 5843 5843 5842 5842 5842 5842 5842 5841 5840 5840 5839 5839 5839 5838 5837 5836 5835 5834 5832 5831
5839 5840 5840 5840 5840 5840 5841 5841 5841 5841 5841 5841 5840 5840 5839 5839 5839 5838 5838 5838 5838 5838 5838 5837 5837 5836 5836 5836 5835 5835 5835 5834 5833 5833 5832 5832 5831 5830 5829 5828 5826 5825 5823
5836 5836 5836 5836 5836 5836 5836 5836 5837 5837 5836 5836 5835 5835 5834 5833 5833 5833 5832 5832 5832 5831 5831 5831 5830 5830 5830 5829 5829 5828 5828 5827 5826 5826 5825 5824 5823 5822 5821 5820 5818 5816 5814
5831 5832 5832 5832 5832 5832 5832 5832 5832 5831 5831 5831 5830 5829 5828 5828 5827 5826 5826 5825 5825 5825 5824 5824 5823 5823 5823 5822 5822 5822 5821 5820 5819 5818 5818 5817 5815 5814 5812 5811 5809 5807 5805
5827 5827 5828 5828 5828 5828 5828 5827 5827 5826 5826 5825 5825 5824 5823 5822 5821 5820 5820 5819 5818 5818 5817 5817 5816 5816 5815 5814 5814 5814 5814 5813 5812 5811 5810 5809 5807 5805 5803 5802 5800 5797 5795
5823 5823 5823 5823 5823 5823 5823 5822 5821 5821 5820 5820 5819 5818 5817 5816 5815 5815 5814 5812 5811 5811 5809 5809 5809 5808 5807 5807 5807 5806 5805 5805 5804 5803 5801 5800 5798 5797 5794 5792 5790 5788 5785
5818 5818 5818 5819 5818 5818 5818 5817 5816 5815 5814 5814 5813 5812 5811 5811 5810 5809 5808 5806 5805 5804 5803 5803 5802 5801 5800 5800 5800 5799 5798 5797 5796 5794 5793 5792 5790 5787 5785 5783 5780 5777 5775
5814 5814 5814 5813 5813 5813 5812 5811 5810 5810 5809 5808 5807 5806 5806 5805 5804 5803 5802 5800 5798 5797 5796 5796 5795 5794 5794 5793 5792 5791 5790 5789 5787 5786 5784 5782 5780 5778 5775 5772 5770 5767 5764
5808 5808 5808 5808 5807 5807 5806 5805 5805 5804 5803 5802 5801 5801 5800 5799 5798 5797 5795 5794 5792 5791 5790 5789 5788 5788 5787 5785 5784 5783 5782 5780 5778 5777 5775 5773 5770 5767 5765 5762 5759 5756 5752
5803 5803 5803 5803 5802 5801 5800 5799 5799 5798 5797 5797 5796 5795 5794 5793 5792 5791 5789 5788 5786 5784 5783 5782 5781 5780 5779 5778 5776 5775 5773 5771 5769 5767 5765 5763 5760 5757 5754 5751 5748 5744 5741
5797 5797 5797 5797 5796 5795 5794 5793 5793 5793 5792 5791 5790 5789 5788 5787 5785 5784 5783 5781 5780 5778 5776 5775 5774 5773 5771 5770 5768 5766 5764 5762 5760 5757 5755 5752 5749 5746 5742 5739 5735 5732 5728
5791 5791 5791 5791 5790 5790 5789 5788 5787 5787 5786 5785 5784 5783 5782 5780 5779 5778 5776 5775 5773 5772 5770 5768 5767 5765 5763 5761 5759 5757 5755 5752 5749 5746 5743 5740 5737 5734 5730 5727 5723 5719 5716
5785 5785 5785 5784 5784 5783 5783 5782 5781 5781 5780 5779 5778 5776 5775 5774 5772 5771 5769 5768 5766 5765 5763 5761 5759 5757 5754 5752 5749 5747 5744 5741 5738 5735 5732 5729 5725 5722 5719 5715 5711 5708 5704
5778 5778 5778 5778 5778 5777 5777 5776 5775 5774 5773 5772 5771 5770 5768 5767 5765 5764 5762 5761 5759 5757 5755 5753 5750 5748 5746 5743 5740 5737 5734 5731 5727 5724 5721 5717 5714 5710 5707 5703 5699 5695 5691
5772 5772 5772 5772 5771 5771 5770 5770 5769 5768 5767 5765 5764 5763 5761 5760 5758 5757 5755 5753 5752 5749 5747 5745 5742 5739 5736 5733 5730 5727 5723 5720 5716 5713 5709 5706 5702 5699 5695 5691 5687 5682 5678
5766 5766 5766 5766 5765 5765 5764 5763 5762 5761 5760 5758 5757 5756 5754 5753 5751 5749 5747 5745 5743 5741 5739 5736 5733 5730 5727 5723 5720 5716 5713 5709 5705 5702 5698 5694 5690 5687 5683 5679 5674 5670 5665
5760 5760 5760 5759 5758 5758 5757 5756 5756 5754 5753 5752 5750 5749 5747 5745 5744 5742 5739 5737 5735 5732 5730 5727 5724 5720 5717 5714 5710 5706 5702 5699 5695 5691 5687 5683 5679 5675 5670 5666 5662 5657 5653
5754 5754 5753 5753 5752 5752 5751 5750 5749 5748 5747 5745 5743 5742 5740 5738 5736 5733 5731 5729 5726 5723 5720 5717 5714 5710 5707 5703 5699 5696 5692 5688 5684 5680 5676 5671 5667 5663 5659 5654 5650 5645 5641
5748 5748 5747 5747 5746 5745 5745 5743 5742 5741 5739 5738 5736 5734 5732 5730 5727 5725 5722 5720 5717 5714 5711 5707 5704 5700 5697 5693 5689 5686 5682 5678 5673 5669 5665 5661 5656 5652 5647 5643 5638 5634 5630
5742 5742 5741 5741 5740 5739 5738 5737 5735 5734 5732 5731 5729 5726 5724 5722 5719 5717 5714 5711 5708 5705 5701 5698 5695 5691 5687 5684 5680 5676 5672 5668 5663 5659 5654 5650 5646 5641 5637 5632 5628 5624 5620
5737 5736 5735 5735 5734 5733 5732 5730 5728 5727 5725 5723 5721 5719 5716 5714 5711 5709 5706 5702 5699 5696 5693 5689 5686 5682 5678 5674 5670 5666 5662 5657 5653 5649 5644 5640 5635 5631 5627 5622 5618 5614 5610
Wind_Speed
11 11 11 10 10 10 11 12 12 12 12 13 14 14 15 15 16 16 17 17 17 17 17 17 17 17 18 18 17 17 18 17 16 16 17 17 17 17 16 17 17 17 17
12 11 11 10 10 10 11 12 12 12 12 13 14 14 15 16 16 17 17 17 17 17 18 18 19 19 19 19 19 19 19 19 18 19 19 19 19 19 19 18 18 19 19
13 12 11 10 10 11 11 12 12 13 13 14 14 15 16 16 16 17 17 17 18 18 17 18 19 19 20 20 20 20 21 20 19 20 21 21 20 21 21 20 20 20 20
12 12 12 11 11 11 12 12 12 13 13 14 15 16 17 17 16 17 17 18 18 18 19 19 19 20 20 20 20 21 22 21 21 21 22 22 22 22 21 21 22 22 22
13 12 12 12 12 12 12 13 14 13 14 15 15 16 17 17 17 18 17 18 18 18 20 20 20 20 21 21 21 21 22 23 23 23 23 23 23 23 23 23 24 25 25
14 13 13 12 13 13 13 14 15 15 15 16 16 17 17 18 19 19 19 19 19 20 21 21 20 20 21 22 22 23 24 24 25 24 24 24 24 25 26 27 27 27 28
13 13 13 13 14 14 14 15 16 16 16 17 18 18 18 19 20 21 21 21 21 21 21 21 22 22 22 22 23 24 24 24 25 25 24 25 25 26 28 29 29 29 29
13 13 13 14 14 14 14 15 16 16 17 17 18 19 19 20 21 22 22 22 22 22 22 23 23 23 24 25 26 25 25 25 25 25 25 25 26 27 29 30 31 31 32
13 14 14 14 14 14 15 15 16 17 18 18 19 19 19 19 20 21 22 22 22 23 24 25 25 25 25 26 27 27 27 27 27 28 28 28 28 29 30 31 32 33 33
15 15 15 15 15 15 15 16 17 17 18 18 18 18 18 19 20 20 20 21 22 23 24 25 25 26 27 27 27 27 28 29 29 30 30 30 31 31 32 33 33 33 33
16 16 16 15 16 16 16 17 18 18 18 18 18 18 18 18 19 20 21 23 24 24 24 25 25 26 27 28 27 27 28 29 30 31 31 31 32 32 33 34 34 34 35
17 16 16 16 17 17 18 18 19 19 19 19 19 19 18 18 19 20 22 23 24 24 24 25 25 25 26 27 28 28 29 30 31 32 32 33 34 34 34 35 36 37 38
16 17 17 17 18 19 19 19 19 19 20 20 20 20 20 20 20 21 23 24 25 25 25 25 24 24 25 27 29 30 30 31 32 32 33 34 34 34 35 37 39 39 39
18 18 18 18 19 19 19 19 20 20 20 21 21 21 21 22 22 23 23 24 24 24 24 25 26 26 28 29 29 30 31 32 33 33 34 35 36 37 38 39 40 40 40
19 20 20 20 20 20 21 20 20 20 20 20 20 21 21 22 22 23 23 23 23 24 25 25 26 27 28 29 30 30 31 32 32 33 35 36 37 38 38 39 41 41 42
20 19 20 20 20 20 21 21 21 20 19 20 20 21 22 23 23 23 22 23 23 24 25 26 26 27 28 29 30 31 32 33 34 36 36 37 39 40 40 41 42 42 43
20 20 21 21 20 20 20 20 20 20 20 20 20 21 21 22 22 22 23 24 24 24 24 25 26 27 28 29 31 32 34 35 36 37 38 39 39 39 39 40 41 42 42
21 21 21 21 21 21 21 21 21 21 21 21 21 21 22 22 23 23 23 23 24 24 24 25 27 28 30 31 32 33 34 35 37 37 38 38 39 39 39 39 40 41 41
20 20 20 20 20 21 21 21 21 21 21 21 22 22 22 23 24 24 24 24 24 25 26 27 28 29 30 31 33 34 35 36 36 37 37 38 38 38 39 40 41 42 43
20 20 19 20 20 21 21 21 21 21 21 22 23 23 23 23 24 25 25 26 26 26 27 29 30 31 32 33 34 34 35 36 37 37 37 38 38 39 40 41 42 43 44
19 19 19 20 20 21 21 21 22 22 22 23 23 24 24 24 24 25 26 28 28 28 29 30 31 32 33 35 35 35 35 36 36 36 37 38 39 39 40 41 43 43 44
18 18 18 19 20 20 21 21 22 22 22 23 23 24 24 25 26 26 26 27 28 30 31 32 33 33 34 35 36 36 36 36 36 37 38 39 39 40 40 41 42 43 43
18 18 19 19 19 19 20 20 21 21 22 23 23 24 25 25 26 27 27 27 29 30 31 32 33 34 35 35 35 35 35 36 37 38 38 38 39 40 41 41 41 40 39
18 19 19 18 18 19 19 20 21 22 23 24 24 25 26 26 26 27 28 28 29 30 31 31 32 33 33 33 34 35 35 35 36 37 37 37 37 38 38 38 37 37 36
18 18 18 18 19 19 20 21 22 22 23 24 25 25 26 26 27 28 28 29 29 29 29 30 31 31 32 33 34 35 36 36 36 37 37 37 36 36 36 36 35 35 35
17 17 18 18 19 19 20 21 22 23 24 24 25 26 26 27 27 28 28 29 29 30 30 30 31 32 32 33 34 35 36 36 37 37 37 37 36 36 35 35 35 35 34
Wind_Direction
262 266 268 268 262 258 255 255 254 248 249 249 252 250 251 254 258 262 263 262 259 258 259 259 257 257 261 264 266 268 269 267 264 265 269 270 271 272 276 282 283 284 282
258 262 262 262 259 254 254 253 253 251 252 252 254 253 255 258 260 262 265 266 260 257 257 259 260 260 262 265 267 268 268 266 265 264 268 270 269 271 276 280 282 285 286
256 255 256 257 258 254 254 252 251 252 253 254 256 257 259 261 262 263 265 265 262 261 261 263 262 262 263 265 268 269 267 266 266 265 266 268 268 270 274 277 280 284 286
260 255 256 259 260 255 255 254 252 254 257 259 260 259 259 260 263 264 265 264 263 264 262 264 266 265 264 266 268 269 268 267 268 268 267 268 269 270 274 277 279 282 285
258 257 261 260 259 256 256 259 258 258 263 266 266 265 263 262 263 265 266 265 265 267 267 266 267 266 264 265 268 270 269 270 270 268 268 269 270 271 275 278 280 282 284
259 259 262 261 260 256 257 262 263 264 267 269 269 270 270 268 267 267 267 267 266 268 269 268 268 268 266 265 267 269 272 273 272 270 269 271 272 274 276 279 279 282 283
262 260 260 264 264 258 257 262 264 266 267 267 269 270 272 270 269 268 269 268 268 269 268 267 267 267 267 267 267 269 272 274 273 271 270 272 274 276 277 279 280 282 283
258 262 265 266 264 261 264 268 266 265 267 268 270 271 272 270 269 269 270 270 270 269 266 265 266 265 265 267 267 269 271 273 273 272 272 273 274 277 279 282 283 284 284
262 265 266 265 264 264 266 269 269 268 269 270 273 274 273 270 269 270 271 270 271 269 266 266 266 266 267 267 267 268 270 272 274 274 275 276 278 280 281 282 283 284 284
267 268 264 263 265 266 268 272 272 271 271 272 274 276 275 273 271 272 275 274 272 270 269 269 269 269 269 267 268 270 271 271 273 273 275 277 280 281 282 283 284 283 284
266 265 263 265 266 268 270 273 272 270 270 271 275 278 278 276 275 275 278 279 276 274 271 269 270 270 268 267 269 272 272 271 272 274 276 278 281 283 284 284 284 284 285
263 263 265 267 268 269 272 274 273 272 272 272 274 276 276 277 277 277 280 282 279 277 274 271 270 271 270 269 270 273 274 275 277 278 280 281 282 283 284 284 284 285 285
262 265 268 270 272 273 274 275 276 278 276 275 275 274 275 278 279 280 280 282 281 279 276 273 272 272 272 272 273 275 276 278 279 279 280 282 283 283 284 285 285 285 286
264 266 269 272 274 274 274 275 275 276 277 275 275 275 276 278 280 281 283 285 282 280 277 273 273 273 274 274 276 277 278 280 280 281 282 283 284 285 285 286 286 286 286
266 269 272 275 278 277 275 274 275 275 277 278 278 277 279 281 283 283 284 285 284 282 280 278 277 278 278 278 279 280 282 283 283 283 284 285 286 286 286 285 286 287 287
267 270 273 274 277 277 277 275 276 277 279 280 280 280 281 283 285 283 282 282 283 284 282 280 280 281 282 282 282 282 283 284 285 286 285 285 285 286 286 286 287 287 288
267 269 272 273 276 277 279 280 280 280 281 281 282 283 283 283 284 284 284 283 283 284 284 284 284 283 283 283 284 284 285 286 287 287 287 286 286 287 288 289 288 288 289
268 270 271 272 275 277 279 279 279 278 279 280 281 282 283 285 284 283 283 284 285 286 287 287 287 286 286 285 286 286 286 287 287 287 287 287 287 288 288 288 289 289 290
270 272 273 274 276 277 279 278 278 279 279 280 281 282 283 284 285 285 283 283 285 286 287 288 288 288 288 288 288 288 288 289 289 289 289 288 289 289 289 290 291 292 292
271 273 275 275 276 279 279 279 280 281 282 282 283 283 283 283 285 284 284 283 284 287 288 287 289 291 291 291 292 292 292 293 292 290 290 290 291 291 291 292 293 294 294
271 273 275 276 276 278 279 278 279 280 281 282 283 284 284 284 285 285 284 285 285 286 287 289 291 293 293 294 294 294 295 296 296 294 293 293 292 292 293 294 295 296 296
271 273 277 279 278 278 278 279 279 281 283 285 286 286 286 285 287 287 287 287 288 289 290 291 293 294 295 295 295 296 296 296 296 295 295 295 294 294 295 296 296 297 297
272 273 276 278 279 279 280 281 281 283 284 286 287 288 287 286 287 289 290 290 291 292 292 293 294 294 294 295 296 297 298 299 300 299 298 298 298 297 298 298 298 297 296
272 274 277 279 280 279 280 281 282 283 285 287 289 290 290 289 290 291 293 294 295 296 295 294 294 295 295 297 299 300 300 301 301 301 300 301 301 301 301 300 299 298 298
274 275 277 278 279 280 282 283 284 285 286 288 289 290 291 291 292 294 295 295 296 298 299 298 298 298 299 300 301 302 301 301 302 303 303 302 302 301 301 301 301 300 300
276 278 279 280 281 282 285 287 288 289 289 290 291 292 293 294 294 295 296 297 298 299 299 300 300 300 301 301 301 302 302 302 302 303 304 303 302 302 302 302 303 303 303